N802DC GOBD-GVNP

Flight info

Callsign N802DC
Flight time N/A
Altitude 18000
Route MOGSA DCT SONVA DCT AREPU AREPU1H
Aircraft C414/L-SBDFGRY/S

Departure

Time N/A
Airport Blaise Diagne International Airport (GOBD)

Arrival

Time 2026-04-30 18:56
Airport Nelson Mandela International Airport (GVNP)
Time Latitude Longitude Altitude Speed Heading
2026-04-30 17:39 15.39012 -19.73737 18042 ft 198 kts 257°
2026-04-30 17:41 15.36461 -19.84789 18034 ft 196 kts 257°
2026-04-30 17:42 15.35826 -19.87540 18037 ft 196 kts 257°
2026-04-30 17:42 15.34874 -19.91654 18034 ft 197 kts 257°
2026-04-30 17:43 15.34237 -19.94406 18040 ft 196 kts 257°
2026-04-30 17:44 15.33283 -19.98525 18047 ft 195 kts 257°
2026-04-30 17:44 15.32330 -20.02633 18041 ft 196 kts 257°
2026-04-30 17:46 15.30732 -20.09516 18038 ft 196 kts 257°
2026-04-30 17:47 15.29458 -20.14998 18051 ft 195 kts 257°
2026-04-30 17:48 15.28189 -20.20454 18050 ft 195 kts 257°
2026-04-30 17:48 15.27231 -20.24566 18047 ft 196 kts 257°
2026-04-30 17:49 15.25953 -20.30044 18050 ft 194 kts 257°
2026-04-30 17:50 15.24683 -20.35484 18046 ft 195 kts 257°
2026-04-30 17:51 15.23725 -20.39586 18044 ft 196 kts 257°
2026-04-30 17:52 15.22763 -20.43697 18046 ft 196 kts 257°
2026-04-30 17:53 15.21171 -20.50495 18035 ft 195 kts 257°
2026-04-30 17:54 15.19888 -20.55969 18042 ft 196 kts 257°
2026-04-30 17:55 15.18606 -20.61432 18048 ft 195 kts 257°
2026-04-30 17:56 15.17323 -20.66888 18046 ft 195 kts 257°
2026-04-30 17:57 15.16363 -20.70971 18045 ft 196 kts 257°
2026-04-30 17:58 15.15395 -20.75080 18047 ft 196 kts 257°
2026-04-30 17:59 15.14112 -20.80522 18052 ft 195 kts 257°
2026-04-30 18:00 15.12822 -20.85993 18050 ft 195 kts 257°
2026-04-30 18:00 15.11852 -20.90096 18056 ft 195 kts 257°
2026-04-30 18:01 15.11212 -20.92809 18056 ft 195 kts 258°
2026-04-30 18:02 15.10246 -20.96892 18053 ft 195 kts 258°
2026-04-30 18:02 15.09277 -21.00986 18049 ft 196 kts 257°
2026-04-30 18:03 15.08303 -21.05095 18057 ft 195 kts 257°
2026-04-30 18:04 15.07335 -21.09178 18054 ft 196 kts 257°
2026-04-30 18:05 15.06040 -21.14636 18049 ft 195 kts 257°
2026-04-30 18:06 15.04740 -21.20105 18055 ft 195 kts 258°
2026-04-30 18:07 15.03447 -21.25538 18059 ft 194 kts 258°
2026-04-30 18:08 15.02477 -21.29615 18061 ft 195 kts 258°
2026-04-30 18:09 15.01177 -21.35068 18055 ft 196 kts 258°
2026-04-30 18:10 14.99878 -21.40514 18050 ft 194 kts 258°
2026-04-30 18:11 14.98580 -21.45946 18054 ft 194 kts 258°
2026-04-30 18:11 14.97604 -21.50026 18048 ft 196 kts 257°
2026-04-30 18:12 14.96623 -21.54121 18054 ft 196 kts 258°
2026-04-30 18:13 14.95974 -21.56834 18057 ft 195 kts 257°
2026-04-30 18:13 14.95103 -21.60468 18062 ft 195 kts 258°
2026-04-30 18:14 14.94343 -21.63637 18058 ft 196 kts 257°
2026-04-30 18:15 14.93468 -21.67284 18056 ft 196 kts 258°
2026-04-30 18:15 14.92486 -21.71375 18061 ft 195 kts 258°
2026-04-30 18:16 14.91833 -21.74093 18060 ft 194 kts 258°
2026-04-30 18:16 14.91178 -21.76812 18053 ft 195 kts 258°
2026-04-30 18:17 14.90850 -21.78174 18055 ft 195 kts 257°
2026-04-30 18:17 14.90523 -21.79537 18059 ft 195 kts 258°
2026-04-30 18:17 14.89864 -21.82274 18056 ft 197 kts 258°
2026-04-30 18:18 14.89534 -21.83644 18059 ft 196 kts 258°
2026-04-30 18:18 14.89208 -21.85001 18051 ft 197 kts 257°
2026-04-30 18:18 14.88877 -21.86371 18055 ft 196 kts 258°
2026-04-30 18:18 14.88547 -21.87742 18052 ft 196 kts 258°
2026-04-30 18:19 14.88218 -21.89106 18062 ft 195 kts 258°
2026-04-30 18:19 14.87888 -21.90474 18061 ft 196 kts 258°
2026-04-30 18:19 14.87558 -21.91844 18058 ft 196 kts 257°
2026-04-30 18:19 14.87232 -21.93196 18060 ft 196 kts 258°
2026-04-30 18:20 14.86901 -21.94566 18053 ft 197 kts 257°
2026-04-30 18:20 14.86570 -21.95939 18051 ft 197 kts 257°
2026-04-30 18:20 14.86238 -21.97313 18056 ft 197 kts 257°
2026-04-30 18:20 14.85905 -21.98688 18058 ft 197 kts 258°
2026-04-30 18:21 14.85574 -22.00059 18057 ft 197 kts 257°
2026-04-30 18:21 14.85242 -22.01432 18057 ft 197 kts 258°
2026-04-30 18:21 14.84911 -22.02803 18057 ft 197 kts 258°
2026-04-30 18:21 14.84579 -22.04176 18059 ft 196 kts 258°
2026-04-30 18:22 14.84248 -22.05542 18060 ft 196 kts 258°
2026-04-30 18:22 14.83628 -22.08272 18058 ft 195 kts 263°
2026-04-30 18:22 14.83408 -22.09659 18056 ft 196 kts 262°
2026-04-30 18:23 14.83169 -22.11048 18057 ft 196 kts 261°
2026-04-30 18:23 14.82934 -22.12443 18056 ft 197 kts 262°
2026-04-30 18:23 14.82700 -22.13841 18050 ft 198 kts 262°
2026-04-30 18:23 14.82467 -22.15241 18060 ft 197 kts 262°
2026-04-30 18:24 14.82002 -22.18023 18061 ft 197 kts 262°
2026-04-30 18:24 14.81769 -22.19416 18063 ft 196 kts 262°
2026-04-30 18:24 14.81542 -22.20783 18063 ft 195 kts 262°
2026-04-30 18:25 14.81310 -22.22168 18061 ft 196 kts 262°
2026-04-30 18:25 14.80844 -22.24944 18055 ft 196 kts 261°
2026-04-30 18:25 14.80611 -22.26335 18059 ft 196 kts 263°
2026-04-30 18:26 14.80146 -22.29118 18058 ft 197 kts 262°
2026-04-30 18:26 14.79915 -22.30493 18057 ft 197 kts 262°
2026-04-30 18:26 14.79681 -22.31889 18057 ft 197 kts 262°
2026-04-30 18:27 14.79211 -22.34680 18063 ft 197 kts 262°
2026-04-30 18:27 14.78975 -22.36076 18064 ft 197 kts 262°
2026-04-30 18:28 14.78510 -22.38857 18063 ft 196 kts 262°
2026-04-30 18:28 14.78279 -22.40238 18061 ft 196 kts 261°
2026-04-30 18:28 14.77812 -22.43017 18063 ft 197 kts 263°
2026-04-30 18:29 14.77578 -22.44409 18065 ft 196 kts 262°
2026-04-30 18:29 14.76876 -22.48579 18058 ft 197 kts 262°
2026-04-30 18:30 14.76405 -22.51374 18064 ft 196 kts 263°
2026-04-30 18:30 14.75934 -22.54162 18058 ft 197 kts 263°
2026-04-30 18:31 14.75700 -22.55554 18063 ft 197 kts 262°
2026-04-30 18:31 14.75233 -22.58320 18064 ft 196 kts 262°
2026-04-30 18:32 14.74761 -22.61107 18064 ft 197 kts 263°
2026-04-30 18:32 14.74525 -22.62498 18054 ft 197 kts 262°
2026-04-30 18:32 14.74052 -22.65300 18061 ft 198 kts 262°
2026-04-30 18:33 14.73815 -22.66703 18059 ft 198 kts 262°
2026-04-30 18:33 14.73343 -22.69485 18055 ft 197 kts 261°
2026-04-30 18:33 14.73106 -22.70885 18060 ft 198 kts 262°
2026-04-30 18:34 14.72869 -22.72283 18055 ft 197 kts 263°
2026-04-30 18:34 14.72398 -22.75065 18064 ft 196 kts 263°
2026-04-30 18:34 14.72161 -22.76457 18059 ft 196 kts 262°
2026-04-30 18:35 14.71925 -22.77848 18062 ft 197 kts 263°
2026-04-30 18:35 14.71688 -22.79240 18064 ft 196 kts 263°
2026-04-30 18:35 14.71451 -22.80637 18067 ft 197 kts 263°
2026-04-30 18:36 14.70982 -22.83412 18056 ft 197 kts 263°
2026-04-30 18:36 14.70945 -22.84821 18064 ft 196 kts 273°
2026-04-30 18:36 14.70980 -22.87635 18066 ft 195 kts 272°
2026-04-30 18:37 14.70991 -22.89039 18064 ft 196 kts 272°
2026-04-30 18:37 14.71004 -22.90447 18065 ft 196 kts 273°
2026-04-30 18:37 14.71017 -22.91855 18063 ft 196 kts 272°
2026-04-30 18:37 14.71029 -22.93266 18067 ft 195 kts 273°
2026-04-30 18:38 14.71042 -22.94672 18068 ft 195 kts 273°
2026-04-30 18:38 14.71054 -22.96050 18068 ft 194 kts 273°
2026-04-30 18:38 14.71067 -22.97443 18068 ft 194 kts 273°
2026-04-30 18:38 14.71086 -22.98847 18063 ft 195 kts 273°
2026-04-30 18:39 14.71097 -23.00250 18060 ft 196 kts 272°
2026-04-30 18:39 14.71105 -23.01666 17923 ft 203 kts 272°
2026-04-30 18:39 14.71117 -23.03174 17530 ft 216 kts 272°
2026-04-30 18:39 14.71131 -23.04731 17148 ft 221 kts 271°
2026-04-30 18:40 14.71144 -23.06333 16766 ft 223 kts 271°
2026-04-30 18:40 14.71157 -23.07944 16380 ft 224 kts 271°
2026-04-30 18:40 14.71170 -23.09544 15975 ft 224 kts 271°
2026-04-30 18:40 14.71182 -23.11163 15505 ft 223 kts 271°
2026-04-30 18:41 14.71196 -23.12748 15040 ft 219 kts 270°
2026-04-30 18:41 14.71209 -23.14310 14579 ft 217 kts 270°
2026-04-30 18:41 14.71221 -23.15859 14112 ft 215 kts 270°
2026-04-30 18:41 14.71234 -23.17413 13569 ft 216 kts 270°
2026-04-30 18:42 14.71246 -23.18969 12987 ft 216 kts 268°
2026-04-30 18:42 14.71270 -23.22059 11861 ft 214 kts 268°
2026-04-30 18:42 14.71281 -23.23582 11304 ft 214 kts 268°
2026-04-30 18:45 14.71392 -23.38401 6477 ft 196 kts 268°
2026-04-30 18:45 14.71400 -23.39806 6088 ft 195 kts 268°
2026-04-30 18:45 14.71411 -23.41208 5696 ft 194 kts 268°
2026-04-30 18:46 14.71420 -23.42602 5315 ft 193 kts 269°
2026-04-30 18:46 14.71429 -23.43984 4934 ft 192 kts 269°
2026-04-30 18:46 14.71439 -23.45356 4552 ft 190 kts 270°
2026-04-30 18:46 14.71491 -23.46704 4161 ft 189 kts 281°
2026-04-30 18:47 14.71935 -23.47950 3974 ft 178 kts 295°
2026-04-30 18:47 14.72382 -23.49095 3884 ft 167 kts 293°
2026-04-30 18:47 14.72801 -23.50185 3788 ft 160 kts 294°
2026-04-30 18:47 14.73210 -23.51228 3702 ft 154 kts 294°
2026-04-30 18:48 14.73609 -23.52243 3598 ft 150 kts 294°
2026-04-30 18:48 14.74001 -23.53234 3505 ft 148 kts 294°
2026-04-30 18:48 14.74386 -23.54216 3411 ft 147 kts 294°
2026-04-30 18:48 14.74884 -23.55115 3320 ft 143 kts 317°
2026-04-30 18:49 14.75727 -23.55633 3224 ft 141 kts 345°
2026-04-30 18:49 14.76679 -23.55671 3133 ft 139 kts 13°
2026-04-30 18:49 14.77577 -23.55323 3041 ft 133 kts 22°
2026-04-30 18:49 14.78400 -23.54990 2951 ft 122 kts 21°
2026-04-30 18:50 14.79172 -23.54672 2867 ft 117 kts 21°
2026-04-30 18:50 14.79910 -23.54366 2785 ft 113 kts 21°
2026-04-30 18:50 14.80629 -23.54068 2713 ft 110 kts 22°
2026-04-30 18:50 14.81332 -23.53777 2636 ft 107 kts 22°
2026-04-30 18:51 14.82013 -23.53495 2566 ft 104 kts 21°
2026-04-30 18:51 14.82679 -23.53219 2484 ft 103 kts 22°
2026-04-30 18:51 14.83348 -23.52941 2368 ft 105 kts 21°
2026-04-30 18:51 14.84022 -23.52661 2241 ft 106 kts 21°
2026-04-30 18:52 14.84704 -23.52399 2077 ft 102 kts 21°
2026-04-30 18:52 14.85358 -23.52140 1934 ft 98 kts 22°
2026-04-30 18:52 14.85986 -23.51872 1799 ft 96 kts 23°
2026-04-30 18:52 14.86592 -23.51612 1711 ft 93 kts 23°
2026-04-30 18:53 14.87211 -23.51348 1612 ft 99 kts 23°
2026-04-30 18:53 14.87858 -23.51079 1495 ft 101 kts 22°
2026-04-30 18:53 14.88499 -23.50795 1370 ft 99 kts 22°
2026-04-30 18:53 14.89130 -23.50544 1234 ft 98 kts 21°
2026-04-30 18:54 14.89770 -23.50296 1080 ft 98 kts 24°
2026-04-30 18:54 14.90402 -23.50019 1008 ft 98 kts 23°
2026-04-30 18:54 14.91038 -23.49747 865 ft 98 kts 22°
2026-04-30 18:54 14.91659 -23.49499 694 ft 96 kts 23°
2026-04-30 18:55 14.92272 -23.49224 638 ft 96 kts 20°
2026-04-30 18:55 14.93503 -23.48723 355 ft 87 kts 22°
2026-04-30 18:55 14.93980 -23.48525 337 ft 63 kts 21°
2026-04-30 18:56 14.94333 -23.48433 335 ft 15 kts 307°
2026-04-30 18:56 14.94374 -23.48512 334 ft 10 kts 328°
2026-04-30 18:56 14.94427 -23.48514 336 ft 6 kts 18°
2026-04-30 18:57 14.94469 -23.48531 334 ft 7 kts 287°
2026-04-30 18:57 14.94485 -23.48568 331 ft 0 kts 292°